Location: Ridgway Nature & Science Center
(38.1460°N, 107.7553°W)
Time: 14:20:05
(UTC-07:00)

Hubble Space Telescope - Pass Details

Date: 01 November 2021
Orbit: 534 x 538 km, 28.5° (Epoch: 06 December)

Event Time Altitude Azimuth Distance (km) Brightness Sun altitude
Rises 19:54:06 0° 245° (WSW) 2,658 5.5 -20.7°
Reaches altitude 10° 19:56:46 10° 229° (SW) 1,767 4.1 -21.2°
Maximum altitude 19:59:52 21° 180° (S) 1,222 2.6 -21.8°
Enters shadow 20:00:14 21° 172° (S) 1,232 2.5 -21.9°
